Vancouver, WA
on Monday, December 17, 2012

Monday
Previous Day Next Day
Daily Summary
 ActualAverageRecord
Temperature
Mean Temperature °F 40°F  
Max Temperature 50°F 46°F 58°F (1917)
Min Temperature 37°F 34°F 6°F (1924)
Degree Days
Heating Degree Days 21    
Month to date heating degree days 340  
Since 1 July heating degree days 1162  
Cooling Degree Days 0    
Month to date cooling degree days 0  
Year to date cooling degree days 398  
Moisture
Dew Point 35°F   
Average Humidity 78    
Maximum Humidity 85    
Minimum Humidity 70    
Precipitation
Precipitation 0.24 in 0.23 in 1.44 in (1917)
Month to date precipitation 4.49 3.56  
Year to date precipitation 42.81 35.93  
Snow
Snow 0.00 in in in ()
Month to date snowfall 0.0  
Snow Depth 0.00 in   
Wind
Wind Speed 8 mph   
Max Wind Speed 22 mph   
Max Gust Speed 37 mph   
Visibility 10 miles   
Events Rain   

Key: T is trace of precipitation, MM is missing value
Source: NWS Daily Summary
Time(PST)TemperatureDew PointHumidity Pressure Visibility Wind DirectionWind SpeedGust SpeedPrecipitationEvents Conditions
12:53 AM 48.0°F 39.0°F 71% 29.20 in 10.0 miles SSW 16.1 mph 31.1 mph 0.00 in Rain Light Rain
1:53 AM 46.9°F 39.9°F 77% 29.24 in 10.0 miles SSW 16.1 mph 28.8 mph 0.01 in Rain Light Rain
2:53 AM 46.9°F 39.0°F 74% 29.33 in 10.0 miles SW 16.1 mph 28.8 mph 0.01 in Rain Light Rain
3:53 AM 46.9°F 39.0°F 74% 29.40 in 10.0 miles WSW 8.1 mph 16.1 mph 0.00 in   Mostly Cloudy
4:53 AM 45.0°F 39.0°F 80% 29.47 in 10.0 miles WSW 9.2 mph - 0.01 in Rain Light Rain
5:53 AM 44.1°F 39.0°F 82% 29.52 in 10.0 miles WSW 11.5 mph 18.4 mph 0.07 in Rain Light Rain
6:53 AM 43.0°F 37.0°F 80% 29.60 in 10.0 miles WSW 8.1 mph - 0.04 in Rain Light Rain
7:53 AM 43.0°F 37.0°F 80% 29.66 in 10.0 miles WSW 5.8 mph - 0.02 in Rain Light Rain
8:53 AM 42.1°F 36.0°F 79% 29.70 in 10.0 miles SSW 3.5 mph - 0.01 in   Mostly Cloudy
9:40 AM 42.8°F 35.6°F 76% 29.75 in 7.0 miles West 11.5 mph 19.6 mph 0.02 in Rain Light Rain
9:49 AM 42.8°F 35.6°F 76% 29.75 in 10.0 miles WSW 5.8 mph 18.4 mph 0.02 in Rain Light Rain
9:53 AM 42.1°F 35.1°F 76% 29.76 in 10.0 miles SW 3.5 mph - 0.02 in   Overcast
10:32 AM 42.8°F 35.6°F 76% 29.79 in 6.0 miles West 10.4 mph - 0.01 in Rain Light Rain
10:53 AM 41.0°F 35.1°F 79% 29.80 in 10.0 miles WSW 8.1 mph - 0.02 in   Overcast
11:20 AM 41.0°F 33.8°F 76% 29.81 in 10.0 miles WSW 8.1 mph - 0.01 in Rain Light Rain
11:48 AM 41.0°F 35.6°F 81% 29.82 in 10.0 miles SW 3.5 mph - 0.01 in Rain Light Rain
11:53 AM 41.0°F 35.1°F 79% 29.83 in 10.0 miles WSW 3.5 mph - 0.01 in Rain Light Rain
12:35 PM 42.8°F 35.6°F 76% 29.83 in 10.0 miles SW 4.6 mph - 0.00 in Rain Light Rain
12:43 PM 42.8°F 35.6°F 76% 29.84 in 10.0 miles West 8.1 mph - 0.00 in Rain Light Rain
12:53 PM 42.1°F 35.1°F 76% 29.84 in 10.0 miles West 6.9 mph - 0.00 in   Overcast
1:22 PM 41.0°F 35.6°F 81% 29.84 in 10.0 miles WSW 6.9 mph - 0.01 in Rain Light Rain
1:37 PM 41.0°F 33.8°F 76% 29.85 in 10.0 miles West 6.9 mph - 0.01 in   Overcast
1:53 PM 41.0°F 34.0°F 76% 29.86 in 10.0 miles WSW 3.5 mph - 0.01 in   Scattered Clouds
4:53 PM 39.0°F 32.0°F 76% 29.93 in 10.0 miles SSW 6.9 mph - N/A   Clear
5:53 PM 39.0°F 33.1°F 79% 29.94 in 10.0 miles South 5.8 mph - N/A   Scattered Clouds
6:53 PM 39.0°F 33.1°F 79% 29.95 in 10.0 miles South 4.6 mph - N/A   Mostly Cloudy
7:53 PM 39.0°F 32.0°F 76% 29.97 in 10.0 miles South 5.8 mph - 0.01 in   Overcast
8:53 PM 37.9°F 33.1°F 83% 29.97 in 10.0 miles South 9.2 mph - 0.00 in   Overcast
9:53 PM 37.0°F 32.0°F 82% 29.98 in 10.0 miles SSE 6.9 mph - N/A   Mostly Cloudy
10:10 PM 37.4°F 33.8°F 87% 29.98 in 10.0 miles Variable 4.6 mph - N/A   Mostly Cloudy
10:25 PM 37.4°F 33.8°F 87% 29.99 in 10.0 miles SSE 3.5 mph - N/A   Overcast
10:32 PM 37.4°F 32.0°F 81% 29.99 in 10.0 miles Variable 6.9 mph - N/A   Overcast
10:39 PM 37.4°F 32.0°F 81% 29.99 in 10.0 miles Variable 4.6 mph - N/A   Overcast
10:53 PM 37.0°F 32.0°F 82% 30.00 in 10.0 miles Variable 6.9 mph - 0.00 in Rain Light Rain
11:12 PM 37.4°F 33.8°F 87% 30.00 in 10.0 miles South 4.6 mph - 0.00 in Rain Light Rain
11:19 PM 37.4°F 33.8°F 87% 30.00 in 10.0 miles South 4.6 mph - 0.00 in Rain Light Rain
11:30 PM 37.4°F 33.8°F 87% 30.00 in 10.0 miles Variable 3.5 mph - 0.00 in Rain Light Rain
11:40 PM 37.4°F 33.8°F 87% 30.00 in 10.0 miles SSE 4.6 mph - 0.00 in   Overcast
11:53 PM 37.0°F 33.1°F 86% 30.00 in 10.0 miles Variable 4.6 mph - 0.00 in   Overcast
Moon Phase
Dec. 17 Dec. 20 Dec. 28 Jan. 04 Jan. 11
Sunrise:07:46 AM (PST) Moon Rise:10:44 AM (PST)12/17
Sunset:04:28 PM (PST) Moon Set:10:10 PM (PST)12/17

Copyright © 2014 The Weather Underground, Inc.